Time,TemperatureF,DewpointF,PressureIn,WindDirection,WindDirectionDegrees,WindSpeedMPH,WindSpeedGustMPH,Humidity,HourlyPrecipIn,Conditions,Clouds,dailyrainin,SoftwareType,DateUTC
2013-03-12 00:00:00,42.1,32.0,30.10,ENE,64,3.0,10.0,67,0.00,,,0.00,meteohub,2013-03-12 04:00:00,
2013-03-12 00:05:00,42.1,32.7,30.11,NE,39,2.0,8.0,69,0.00,,,0.00,meteohub,2013-03-12 04:05:00,
2013-03-12 00:10:00,42.3,33.3,30.10,SE,128,4.0,12.0,70,0.00,,,0.00,meteohub,2013-03-12 04:10:00,
2013-03-12 00:15:00,42.3,33.8,30.10,SSE,161,8.0,12.0,72,0.00,,,0.00,meteohub,2013-03-12 04:15:00,
2013-03-12 00:20:00,42.6,34.2,30.10,NNE,19,1.0,12.0,72,0.00,,,0.00,meteohub,2013-03-12 04:20:00,
2013-03-12 00:25:00,43.0,34.5,30.11,ESE,110,0.0,14.0,72,0.00,,,0.00,meteohub,2013-03-12 04:25:00,
2013-03-12 00:30:00,42.6,34.2,30.11,SSE,152,6.0,14.0,72,0.00,,,0.00,meteohub,2013-03-12 04:30:00,
2013-03-12 00:35:00,42.3,34.2,30.11,East,79,2.0,11.0,73,0.00,,,0.00,meteohub,2013-03-12 04:35:00,
2013-03-12 00:40:00,41.9,34.5,30.12,ESE,107,1.0,7.0,75,0.00,,,0.00,meteohub,2013-03-12 04:40:00,
2013-03-12 00:45:00,41.7,34.3,30.12,ESE,108,0.0,7.0,75,0.00,,,0.00,meteohub,2013-03-12 04:45:00,
2013-03-12 00:50:00,41.5,34.9,30.12,SSW,207,7.0,7.0,77,0.00,,,0.00,meteohub,2013-03-12 04:50:00,
2013-03-12 00:55:00,43.3,36.9,30.12,WSW,244,5.0,12.0,78,0.00,,,0.00,meteohub,2013-03-12 04:55:00,
2013-03-12 01:00:00,43.5,36.9,30.12,South,176,6.0,24.0,77,0.00,,,0.00,meteohub,2013-03-12 05:00:00,
2013-03-12 01:05:00,43.9,37.2,30.12,SSW,205,4.0,24.0,77,0.00,,,0.00,meteohub,2013-03-12 05:05:00,
2013-03-12 01:11:00,44.8,38.7,30.11,South,187,0.0,24.0,79,0.00,,,0.00,meteohub,2013-03-12 05:11:00,
2013-03-12 01:16:00,44.6,37.6,30.11,ENE,62,1.0,11.0,76,0.00,,,0.00,meteohub,2013-03-12 05:16:00,
2013-03-12 01:21:00,43.9,37.2,30.10,SSW,210,11.0,13.0,77,0.00,,,0.00,meteohub,2013-03-12 05:21:00,
2013-03-12 01:26:00,43.9,37.8,30.09,SE,136,2.0,14.0,79,0.00,,,0.00,meteohub,2013-03-12 05:26:00,
2013-03-12 01:31:00,44.8,39.6,30.09,SSW,194,6.0,14.0,82,0.00,,,0.00,meteohub,2013-03-12 05:31:00,
2013-03-12 01:36:00,45.9,40.1,30.09,SW,231,8.0,14.0,80,0.00,,,0.00,meteohub,2013-03-12 05:36:00,
2013-03-12 01:41:00,46.2,40.1,30.09,South,179,5.0,16.0,79,0.00,,,0.00,meteohub,2013-03-12 05:41:00,
2013-03-12 01:46:00,46.6,40.1,30.09,WSW,242,3.0,16.0,78,0.00,,,0.00,meteohub,2013-03-12 05:46:00,
2013-03-12 01:51:00,46.6,40.1,30.09,SW,225,6.0,16.0,78,0.00,,,0.00,meteohub,2013-03-12 05:51:00,
2013-03-12 01:56:00,46.8,40.6,30.09,WSW,252,11.0,13.0,79,0.00,,,0.00,meteohub,2013-03-12 05:56:00,
2013-03-12 02:01:00,46.9,40.5,30.09,SSW,211,12.0,22.0,78,0.00,,,0.00,meteohub,2013-03-12 06:01:00,
2013-03-12 02:06:00,46.9,40.1,30.08,WSW,240,7.0,22.0,77,0.00,,,0.00,meteohub,2013-03-12 06:06:00,
2013-03-12 02:11:00,46.8,40.3,30.08,ESE,105,1.0,22.0,78,0.00,,,0.00,meteohub,2013-03-12 06:11:00,
2013-03-12 02:16:00,46.8,40.3,30.08,SW,220,2.0,22.0,78,0.00,,,0.00,meteohub,2013-03-12 06:16:00,
2013-03-12 02:21:00,46.9,40.5,30.08,SW,229,0.0,22.0,78,0.00,,,0.00,meteohub,2013-03-12 06:21:00,
2013-03-12 02:26:00,46.9,40.5,30.08,SW,218,8.0,21.0,78,0.00,,,0.00,meteohub,2013-03-12 06:26:00,
2013-03-12 02:31:00,47.1,40.3,30.07,SW,224,10.0,21.0,77,0.00,,,0.00,meteohub,2013-03-12 06:31:00,
2013-03-12 02:36:00,46.9,40.5,30.07,SSW,211,6.0,19.0,78,0.00,,,0.00,meteohub,2013-03-12 06:36:00,
2013-03-12 02:42:00,46.9,40.5,30.07,SSW,204,9.0,21.0,78,0.00,,,0.00,meteohub,2013-03-12 06:42:00,
2013-03-12 02:47:00,47.1,40.3,30.07,South,175,9.0,21.0,77,0.00,,,0.00,meteohub,2013-03-12 06:47:00,
2013-03-12 02:52:00,46.9,40.1,30.06,SSW,211,6.0,21.0,77,0.00,,,0.00,meteohub,2013-03-12 06:52:00,
2013-03-12 02:57:00,46.9,39.7,30.05,SSE,167,8.0,20.0,76,0.00,,,0.00,meteohub,2013-03-12 06:57:00,
2013-03-12 03:02:00,46.9,39.4,30.04,WSW,243,2.0,25.0,75,0.00,,,0.00,meteohub,2013-03-12 07:02:00,
2013-03-12 03:07:00,46.9,39.4,30.05,SSW,194,8.0,25.0,75,0.00,,,0.00,meteohub,2013-03-12 07:07:00,
2013-03-12 03:12:00,47.3,39.7,30.05,SW,231,18.0,23.0,75,0.00,,,0.00,meteohub,2013-03-12 07:12:00,
2013-03-12 03:17:00,47.1,39.6,30.06,SSW,208,6.0,20.0,75,0.00,,,0.00,meteohub,2013-03-12 07:17:00,
2013-03-12 03:22:00,47.1,39.6,30.06,SW,232,6.0,20.0,75,0.00,,,0.00,meteohub,2013-03-12 07:22:00,
2013-03-12 03:27:00,46.9,39.4,30.06,West,263,6.0,18.0,75,0.00,,,0.00,meteohub,2013-03-12 07:27:00,
2013-03-12 03:32:00,46.9,39.7,30.07,SSW,198,7.0,16.0,76,0.00,,,0.00,meteohub,2013-03-12 07:32:00,
2013-03-12 03:37:00,47.1,39.9,30.07,WSW,242,9.0,19.0,76,0.00,,,0.00,meteohub,2013-03-12 07:37:00,
2013-03-12 03:42:00,47.1,39.9,30.07,SW,216,7.0,19.0,76,0.00,,,0.00,meteohub,2013-03-12 07:42:00,
2013-03-12 03:47:00,47.1,39.9,30.06,SW,229,13.0,19.0,76,0.00,,,0.00,meteohub,2013-03-12 07:47:00,
2013-03-12 03:52:00,46.8,39.9,30.06,SSW,213,5.0,14.0,77,0.00,,,0.00,meteohub,2013-03-12 07:52:00,
2013-03-12 03:57:00,46.6,40.8,30.06,SSW,207,4.0,14.0,80,0.00,,,0.00,meteohub,2013-03-12 07:57:00,
2013-03-12 04:02:00,46.4,40.8,30.05,SSW,213,6.0,13.0,81,0.01,,,0.01,meteohub,2013-03-12 08:02:00,
2013-03-12 04:07:00,46.2,41.0,30.05,SSW,206,9.0,14.0,82,0.02,,,0.01,meteohub,2013-03-12 08:07:00,
2013-03-12 04:12:00,46.0,41.2,30.04,SW,215,2.0,14.0,83,0.02,,,0.02,meteohub,2013-03-12 08:12:00,
2013-03-12 04:17:00,46.2,41.7,30.04,SSW,213,5.0,14.0,84,0.02,,,0.02,meteohub,2013-03-12 08:17:00,
2013-03-12 04:22:00,46.2,41.7,30.03,WSW,253,5.0,14.0,84,0.02,,,0.02,meteohub,2013-03-12 08:22:00,
2013-03-12 04:27:00,46.6,42.1,30.03,SW,220,7.0,16.0,84,0.03,,,0.03,meteohub,2013-03-12 08:27:00,
2013-03-12 04:33:00,46.0,41.5,30.03,SW,223,7.0,16.0,84,0.03,,,0.03,meteohub,2013-03-12 08:33:00,
2013-03-12 04:38:00,45.9,41.4,30.03,SSW,208,6.0,16.0,84,0.03,,,0.03,meteohub,2013-03-12 08:38:00,
2013-03-12 04:43:00,45.7,41.7,30.03,SSW,213,7.0,14.0,86,0.03,,,0.03,meteohub,2013-03-12 08:43:00,
2013-03-12 04:48:00,45.5,41.5,30.02,SSW,197,5.0,14.0,86,0.03,,,0.03,meteohub,2013-03-12 08:48:00,
2013-03-12 04:53:00,45.3,41.7,30.02,South,184,7.0,12.0,87,0.03,,,0.03,meteohub,2013-03-12 08:53:00,
2013-03-12 04:58:00,45.3,41.9,30.02,SSW,202,9.0,13.0,88,0.03,,,0.04,meteohub,2013-03-12 08:58:00,
2013-03-12 05:03:00,45.1,41.7,30.02,South,174,4.0,13.0,88,0.03,,,0.04,meteohub,2013-03-12 09:03:00,
2013-03-12 05:08:00,45.1,42.1,30.02,SSW,197,4.0,13.0,89,0.03,,,0.05,meteohub,2013-03-12 09:08:00,
2013-03-12 05:13:00,45.0,41.9,30.03,WNW,286,3.0,12.0,89,0.03,,,0.05,meteohub,2013-03-12 09:13:00,
2013-03-12 05:18:00,45.7,42.6,30.03,SW,214,6.0,10.0,89,0.04,,,0.06,meteohub,2013-03-12 09:18:00,
2013-03-12 05:23:00,45.5,42.4,30.03,SW,215,4.0,14.0,89,0.04,,,0.07,meteohub,2013-03-12 09:23:00,
2013-03-12 05:28:00,45.9,42.8,30.03,SSW,202,13.0,14.0,89,0.04,,,0.07,meteohub,2013-03-12 09:28:00,
2013-03-12 05:33:00,46.2,42.8,30.02,South,171,4.0,18.0,88,0.05,,,0.08,meteohub,2013-03-12 09:33:00,
2013-03-12 05:38:00,46.2,43.2,30.02,SW,214,11.0,18.0,89,0.06,,,0.09,meteohub,2013-03-12 09:38:00,
2013-03-12 05:43:00,46.8,43.3,30.02,SSW,204,12.0,18.0,88,0.07,,,0.10,meteohub,2013-03-12 09:43:00,
2013-03-12 05:48:00,46.8,43.3,30.01,SW,216,7.0,20.0,88,0.08,,,0.11,meteohub,2013-03-12 09:48:00,
2013-03-12 05:53:00,46.8,43.3,30.01,WSW,244,2.0,20.0,88,0.08,,,0.11,meteohub,2013-03-12 09:53:00,
2013-03-12 05:58:00,46.8,43.7,30.02,WSW,247,3.0,20.0,89,0.07,,,0.11,meteohub,2013-03-12 09:58:00,
2013-03-12 06:03:00,46.9,43.5,30.02,South,190,5.0,20.0,88,0.07,,,0.12,meteohub,2013-03-12 10:03:00,
2013-03-12 06:08:00,47.1,44.1,30.02,SW,217,5.0,20.0,89,0.07,,,0.12,meteohub,2013-03-12 10:08:00,
2013-03-12 06:13:00,46.9,43.5,30.02,SW,223,4.0,19.0,88,0.07,,,0.13,meteohub,2013-03-12 10:13:00,
2013-03-12 06:18:00,46.9,43.9,30.01,SW,215,6.0,15.0,89,0.07,,,0.13,meteohub,2013-03-12 10:18:00,
2013-03-12 06:23:00,47.1,43.7,30.01,SSW,213,7.0,15.0,88,0.07,,,0.14,meteohub,2013-03-12 10:23:00,
2013-03-12 06:28:00,47.1,43.7,30.01,SW,234,11.0,15.0,88,0.07,,,0.14,meteohub,2013-03-12 10:28:00,
2013-03-12 06:34:00,47.3,43.9,30.01,WSW,249,11.0,16.0,88,0.05,,,0.14,meteohub,2013-03-12 10:34:00,
2013-03-12 06:39:00,47.7,44.2,30.01,NW,319,6.0,17.0,88,0.05,,,0.15,meteohub,2013-03-12 10:39:00,
2013-03-12 06:44:00,47.7,44.1,30.00,South,188,8.0,21.0,87,0.04,,,0.15,meteohub,2013-03-12 10:44:00,
2013-03-12 06:48:00,47.5,44.1,30.01,SSW,192,17.0,21.0,88,0.05,,,0.16,meteohub,2013-03-12 10:48:00,
2013-03-12 06:54:00,47.5,43.5,30.00,SW,221,14.0,21.0,86,0.05,,,0.16,meteohub,2013-03-12 10:54:00,
2013-03-12 06:59:00,47.5,44.1,30.00,WSW,244,10.0,24.0,88,0.05,,,0.16,meteohub,2013-03-12 10:59:00,
2013-03-12 07:04:00,47.8,44.2,30.00,SW,224,7.0,24.0,87,0.05,,,0.17,meteohub,2013-03-12 11:04:00,
2013-03-12 07:09:00,47.8,43.9,29.99,SW,223,6.0,26.0,86,0.04,,,0.17,meteohub,2013-03-12 11:09:00,
2013-03-12 07:14:00,47.8,44.4,29.99,WNW,282,8.0,26.0,88,0.04,,,0.17,meteohub,2013-03-12 11:14:00,
2013-03-12 07:19:00,48.0,44.1,30.00,SW,224,16.0,26.0,86,0.03,,,0.17,meteohub,2013-03-12 11:19:00,
2013-03-12 07:24:00,47.8,44.2,29.99,South,187,13.0,26.0,87,0.03,,,0.17,meteohub,2013-03-12 11:24:00,
2013-03-12 07:29:00,47.8,44.4,29.99,SW,219,2.0,26.0,88,0.03,,,0.17,meteohub,2013-03-12 11:29:00,
2013-03-12 07:34:00,47.8,44.4,29.99,WSW,248,6.0,21.0,88,0.03,,,0.18,meteohub,2013-03-12 11:34:00,
2013-03-12 07:39:00,47.7,44.2,29.99,SSW,204,9.0,16.0,88,0.03,,,0.18,meteohub,2013-03-12 11:39:00,
2013-03-12 07:44:00,47.8,44.8,29.99,SW,236,11.0,16.0,89,0.03,,,0.18,meteohub,2013-03-12 11:44:00,
2013-03-12 07:49:00,48.0,44.6,29.99,SE,146,6.0,23.0,88,0.02,,,0.18,meteohub,2013-03-12 11:49:00,
2013-03-12 07:54:00,48.0,44.6,29.98,SSW,204,12.0,24.0,88,0.02,,,0.18,meteohub,2013-03-12 11:54:00,
2013-03-12 07:59:00,48.2,44.8,29.99,SW,215,3.0,24.0,88,0.02,,,0.18,meteohub,2013-03-12 11:59:00,
2013-03-12 08:04:00,48.4,45.0,29.99,SSW,208,7.0,24.0,88,0.01,,,0.18,meteohub,2013-03-12 12:04:00,
2013-03-12 08:09:00,48.2,44.8,29.99,SSW,197,13.0,24.0,88,0.01,,,0.18,meteohub,2013-03-12 12:09:00,
2013-03-12 08:14:00,48.4,45.0,29.99,SW,227,2.0,24.0,88,0.01,,,0.18,meteohub,2013-03-12 12:14:00,
2013-03-12 08:19:00,48.2,45.1,29.99,SW,221,10.0,24.0,89,0.01,,,0.18,meteohub,2013-03-12 12:19:00,
2013-03-12 08:24:00,48.6,45.1,29.99,SW,225,8.0,22.0,88,0.01,,,0.18,meteohub,2013-03-12 12:24:00,
2013-03-12 08:29:00,48.0,44.6,29.98,SSW,211,8.0,22.0,88,0.01,,,0.18,meteohub,2013-03-12 12:29:00,
2013-03-12 08:34:00,48.2,45.1,29.98,SSW,208,14.0,19.0,89,0.01,,,0.19,meteohub,2013-03-12 12:34:00,
2013-03-12 08:39:00,48.0,45.0,29.99,SSW,192,10.0,23.0,89,0.01,,,0.19,meteohub,2013-03-12 12:39:00,
2013-03-12 08:44:00,47.8,44.4,29.98,SSW,206,5.0,23.0,88,0.01,,,0.19,meteohub,2013-03-12 12:44:00,
2013-03-12 08:49:00,48.0,45.1,29.97,South,173,10.0,23.0,90,0.01,,,0.19,meteohub,2013-03-12 12:49:00,
2013-03-12 08:54:00,48.2,45.1,29.97,SW,217,5.0,19.0,89,0.01,,,0.19,meteohub,2013-03-12 12:54:00,
2013-03-12 08:59:00,48.0,44.6,29.97,SSW,200,13.0,19.0,88,0.01,,,0.19,meteohub,2013-03-12 12:59:00,
2013-03-12 09:04:00,48.0,45.0,29.97,SSW,193,9.0,19.0,89,0.01,,,0.19,meteohub,2013-03-12 13:04:00,
2013-03-12 09:09:00,47.8,44.8,29.97,South,170,6.0,19.0,89,0.01,,,0.19,meteohub,2013-03-12 13:09:00,
2013-03-12 09:14:00,47.5,44.8,29.97,SSW,206,12.0,19.0,90,0.01,,,0.19,meteohub,2013-03-12 13:14:00,
2013-03-12 09:19:00,47.8,45.0,29.96,SSW,205,7.0,19.0,90,0.01,,,0.19,meteohub,2013-03-12 13:19:00,
2013-03-12 09:24:00,47.8,44.8,29.97,South,182,5.0,19.0,89,0.01,,,0.19,meteohub,2013-03-12 13:24:00,
2013-03-12 09:29:00,48.0,45.0,29.97,SSW,196,5.0,16.0,89,0.01,,,0.19,meteohub,2013-03-12 13:29:00,
2013-03-12 09:34:00,47.7,45.0,29.97,South,179,10.0,20.0,90,0.00,,,0.19,meteohub,2013-03-12 13:34:00,
2013-03-12 09:39:00,46.9,44.2,29.96,SSE,162,9.0,22.0,90,0.00,,,0.19,meteohub,2013-03-12 13:39:00,
2013-03-12 09:44:00,46.6,44.1,29.96,SSW,207,17.0,22.0,91,0.00,,,0.19,meteohub,2013-03-12 13:44:00,
2013-03-12 09:49:00,46.2,44.1,29.96,South,171,11.0,22.0,92,0.01,,,0.20,meteohub,2013-03-12 13:49:00,
2013-03-12 09:54:00,46.2,44.1,29.96,SW,216,13.0,20.0,92,0.01,,,0.20,meteohub,2013-03-12 13:54:00,
2013-03-12 09:59:00,46.8,44.6,29.96,SW,215,7.0,19.0,92,0.01,,,0.20,meteohub,2013-03-12 13:59:00,
2013-03-12 10:04:00,47.3,44.8,29.96,SSW,204,8.0,18.0,91,0.01,,,0.20,meteohub,2013-03-12 14:04:00,
2013-03-12 10:09:00,46.9,44.4,29.96,SW,224,8.0,21.0,91,0.01,,,0.20,meteohub,2013-03-12 14:09:00,
2013-03-12 10:14:00,47.3,44.8,29.96,SW,215,12.0,21.0,91,0.01,,,0.20,meteohub,2013-03-12 14:14:00,
2013-03-12 10:19:00,47.5,45.0,29.96,SW,229,7.0,21.0,91,0.01,,,0.20,meteohub,2013-03-12 14:19:00,
2013-03-12 10:24:00,47.8,45.3,29.96,South,191,14.0,25.0,91,0.01,,,0.20,meteohub,2013-03-12 14:24:00,
2013-03-12 10:29:00,47.8,45.3,29.95,SSW,196,17.0,25.0,91,0.01,,,0.20,meteohub,2013-03-12 14:29:00,
2013-03-12 10:34:00,48.6,45.5,29.95,SSW,200,10.0,20.0,89,0.02,,,0.21,meteohub,2013-03-12 14:34:00,
2013-03-12 10:39:00,48.7,45.3,29.95,SSW,197,14.0,24.0,88,0.02,,,0.21,meteohub,2013-03-12 14:39:00,
2013-03-12 10:44:00,48.9,45.5,29.95,SW,215,10.0,24.0,88,0.02,,,0.21,meteohub,2013-03-12 14:44:00,
2013-03-12 10:50:00,48.4,45.3,29.95,SSW,204,7.0,24.0,89,0.02,,,0.21,meteohub,2013-03-12 14:50:00,
2013-03-12 10:55:00,48.4,45.5,29.94,SSW,197,6.0,24.0,90,0.02,,,0.21,meteohub,2013-03-12 14:55:00,
2013-03-12 11:00:00,48.6,45.7,29.94,WSW,250,6.0,23.0,90,0.02,,,0.22,meteohub,2013-03-12 15:00:00,
2013-03-12 11:05:00,49.1,46.0,29.94,SSW,207,18.0,22.0,89,0.03,,,0.23,meteohub,2013-03-12 15:05:00,
2013-03-12 11:10:00,49.3,45.9,29.94,WSW,249,10.0,22.0,88,0.03,,,0.23,meteohub,2013-03-12 15:10:00,
2013-03-12 11:15:00,48.9,45.1,29.94,SW,214,8.0,26.0,87,0.03,,,0.23,meteohub,2013-03-12 15:15:00,
2013-03-12 11:20:00,48.6,45.5,29.94,SSW,207,5.0,26.0,89,0.04,,,0.24,meteohub,2013-03-12 15:20:00,
2013-03-12 11:25:00,48.9,45.9,29.94,South,191,12.0,26.0,89,0.05,,,0.24,meteohub,2013-03-12 15:25:00,
2013-03-12 11:30:00,48.7,45.3,29.94,SW,221,19.0,19.0,88,0.04,,,0.25,meteohub,2013-03-12 15:30:00,
2013-03-12 11:35:00,48.6,45.1,29.94,South,179,3.0,18.0,88,0.04,,,0.25,meteohub,2013-03-12 15:35:00,
2013-03-12 11:40:00,47.8,45.0,29.93,SW,223,10.0,19.0,90,0.05,,,0.27,meteohub,2013-03-12 15:40:00,
2013-03-12 11:45:00,47.8,45.3,29.94,SW,222,8.0,19.0,91,0.06,,,0.27,meteohub,2013-03-12 15:45:00,
2013-03-12 11:50:00,47.7,45.1,29.93,SSW,198,7.0,17.0,91,0.06,,,0.27,meteohub,2013-03-12 15:50:00,
2013-03-12 11:55:00,47.8,45.3,29.93,SW,217,11.0,17.0,91,0.05,,,0.27,meteohub,2013-03-12 15:55:00,
2013-03-12 12:00:00,47.8,44.8,29.93,SSE,162,6.0,17.0,89,0.05,,,0.28,meteohub,2013-03-12 16:00:00,
2013-03-12 12:05:00,47.7,45.1,29.93,SE,140,10.0,18.0,91,0.05,,,0.28,meteohub,2013-03-12 16:05:00,
2013-03-12 12:10:00,47.8,45.0,29.92,SSW,203,11.0,18.0,90,0.06,,,0.28,meteohub,2013-03-12 16:10:00,
2013-03-12 12:15:00,47.7,45.1,29.92,SSE,165,10.0,18.0,91,0.05,,,0.29,meteohub,2013-03-12 16:15:00,
2013-03-12 12:20:00,48.0,45.1,29.92,South,181,7.0,16.0,90,0.06,,,0.30,meteohub,2013-03-12 16:20:00,
2013-03-12 12:25:00,48.2,45.3,29.92,SSW,201,10.0,21.0,90,0.06,,,0.31,meteohub,2013-03-12 16:25:00,
2013-03-12 12:30:00,48.2,45.3,29.93,South,184,6.0,21.0,90,0.06,,,0.32,meteohub,2013-03-12 16:30:00,
2013-03-12 12:35:00,48.0,45.1,29.92,SSW,208,9.0,16.0,90,0.06,,,0.32,meteohub,2013-03-12 16:35:00,
2013-03-12 12:40:00,48.0,45.1,29.91,SSE,163,8.0,16.0,90,0.05,,,0.32,meteohub,2013-03-12 16:40:00,
2013-03-12 12:45:00,48.2,45.3,29.92,South,190,8.0,18.0,90,0.06,,,0.33,meteohub,2013-03-12 16:45:00,
2013-03-12 12:50:00,47.8,45.0,29.91,SSW,203,10.0,18.0,90,0.06,,,0.33,meteohub,2013-03-12 16:50:00,
2013-03-12 12:55:00,47.7,45.1,29.91,SSW,213,12.0,18.0,91,0.06,,,0.33,meteohub,2013-03-12 16:55:00,
2013-03-12 13:00:00,47.8,45.0,29.91,South,182,6.0,17.0,90,0.05,,,0.33,meteohub,2013-03-12 17:00:00,
2013-03-12 13:05:00,47.7,45.0,29.91,SW,232,5.0,17.0,90,0.05,,,0.34,meteohub,2013-03-12 17:05:00,
2013-03-12 13:10:00,48.0,45.1,29.90,South,191,4.0,21.0,90,0.05,,,0.34,meteohub,2013-03-12 17:10:00,
2013-03-12 13:15:00,47.8,45.3,29.90,South,181,6.0,21.0,91,0.05,,,0.35,meteohub,2013-03-12 17:15:00,
2013-03-12 13:20:00,47.7,45.1,29.89,SSW,194,15.0,21.0,91,0.04,,,0.35,meteohub,2013-03-12 17:20:00,
2013-03-12 13:25:00,48.0,45.1,29.90,SSW,207,17.0,19.0,90,0.05,,,0.36,meteohub,2013-03-12 17:25:00,
2013-03-12 13:30:00,48.0,45.5,29.90,South,186,8.0,19.0,91,0.04,,,0.36,meteohub,2013-03-12 17:30:00,
2013-03-12 13:35:00,47.8,45.3,29.90,SSE,156,14.0,21.0,91,0.05,,,0.37,meteohub,2013-03-12 17:35:00,
2013-03-12 13:40:00,48.0,45.1,29.89,SW,224,8.0,22.0,90,0.04,,,0.37,meteohub,2013-03-12 17:40:00,
2013-03-12 13:45:00,47.8,45.3,29.89,SSW,195,9.0,22.0,91,0.04,,,0.37,meteohub,2013-03-12 17:45:00,
2013-03-12 13:50:00,48.4,45.5,29.89,SW,224,12.0,22.0,90,0.05,,,0.38,meteohub,2013-03-12 17:50:00,
2013-03-12 13:55:00,48.2,45.3,29.88,SW,227,8.0,20.0,90,0.06,,,0.39,meteohub,2013-03-12 17:55:00,
2013-03-12 14:00:00,47.8,45.0,29.88,SSW,200,10.0,20.0,90,0.05,,,0.39,meteohub,2013-03-12 18:00:00,
2013-03-12 14:05:00,48.4,45.5,29.88,SSW,199,7.0,19.0,90,0.06,,,0.40,meteohub,2013-03-12 18:05:00,
2013-03-12 14:11:00,48.0,45.1,29.88,SSW,194,7.0,19.0,90,0.05,,,0.40,meteohub,2013-03-12 18:11:00,
2013-03-12 14:16:00,48.6,45.5,29.88,SSW,193,7.0,24.0,89,0.05,,,0.40,meteohub,2013-03-12 18:16:00,
2013-03-12 14:21:00,48.0,45.1,29.87,South,188,14.0,24.0,90,0.06,,,0.41,meteohub,2013-03-12 18:21:00,
2013-03-12 14:26:00,48.0,45.1,29.87,SSW,205,8.0,24.0,90,0.05,,,0.41,meteohub,2013-03-12 18:26:00,
2013-03-12 14:31:00,48.0,45.5,29.87,SSW,207,8.0,17.0,91,0.05,,,0.41,meteohub,2013-03-12 18:31:00,
2013-03-12 14:36:00,48.6,45.7,29.87,SW,217,15.0,16.0,90,0.05,,,0.42,meteohub,2013-03-12 18:36:00,
2013-03-12 14:41:00,48.0,45.1,29.86,SSW,212,13.0,16.0,90,0.06,,,0.43,meteohub,2013-03-12 18:41:00,
2013-03-12 14:46:00,48.0,45.1,29.85,SW,215,11.0,18.0,90,0.06,,,0.44,meteohub,2013-03-12 18:46:00,
2013-03-12 14:51:00,48.2,45.3,29.85,SSW,200,13.0,18.0,90,0.06,,,0.45,meteohub,2013-03-12 18:51:00,
2013-03-12 14:56:00,48.4,45.5,29.85,SSW,193,14.0,20.0,90,0.06,,,0.45,meteohub,2013-03-12 18:56:00,
2013-03-12 15:02:00,48.0,45.1,29.84,SSW,197,9.0,20.0,90,0.05,,,0.45,meteohub,2013-03-12 19:02:00,
2013-03-12 15:07:00,47.8,45.3,29.84,SW,217,15.0,20.0,91,0.05,,,0.45,meteohub,2013-03-12 19:07:00,
2013-03-12 15:12:00,48.0,45.9,29.84,SSW,202,7.0,20.0,92,0.05,,,0.45,meteohub,2013-03-12 19:12:00,
2013-03-12 15:17:00,47.7,45.5,29.83,South,190,12.0,18.0,92,0.05,,,0.45,meteohub,2013-03-12 19:17:00,
2013-03-12 15:22:00,47.7,45.5,29.83,South,181,11.0,19.0,92,0.05,,,0.46,meteohub,2013-03-12 19:22:00,
2013-03-12 15:27:00,47.7,45.5,29.83,SSW,205,15.0,19.0,92,0.05,,,0.46,meteohub,2013-03-12 19:27:00,
2013-03-12 15:32:00,47.5,45.3,29.83,South,189,14.0,20.0,92,0.04,,,0.46,meteohub,2013-03-12 19:32:00,
2013-03-12 15:37:00,47.7,45.5,29.82,SSW,192,8.0,20.0,92,0.04,,,0.47,meteohub,2013-03-12 19:37:00,
2013-03-12 15:42:00,47.3,45.3,29.83,SSW,199,7.0,20.0,93,0.03,,,0.47,meteohub,2013-03-12 19:42:00,
2013-03-12 15:47:00,47.1,45.1,29.82,SW,214,12.0,18.0,93,0.03,,,0.47,meteohub,2013-03-12 19:47:00,
2013-03-12 15:52:00,47.1,45.0,29.82,SSW,192,12.0,17.0,92,0.03,,,0.48,meteohub,2013-03-12 19:52:00,
2013-03-12 15:57:00,47.1,45.5,29.82,South,182,6.0,17.0,94,0.04,,,0.49,meteohub,2013-03-12 19:57:00,
2013-03-12 16:02:00,47.1,45.1,29.81,South,175,7.0,17.0,93,0.04,,,0.49,meteohub,2013-03-12 20:02:00,
2013-03-12 16:07:00,47.1,45.1,29.81,SSW,195,14.0,18.0,93,0.05,,,0.50,meteohub,2013-03-12 20:07:00,
2013-03-12 16:13:00,47.5,45.5,29.81,SSW,208,9.0,18.0,93,0.05,,,0.50,meteohub,2013-03-12 20:13:00,
2013-03-12 16:18:00,47.5,45.5,29.81,SSW,194,10.0,19.0,93,0.06,,,0.51,meteohub,2013-03-12 20:18:00,
2013-03-12 16:23:00,47.5,45.3,29.81,SSW,202,7.0,19.0,92,0.06,,,0.52,meteohub,2013-03-12 20:23:00,
2013-03-12 16:28:00,47.8,45.7,29.81,South,187,15.0,17.0,92,0.06,,,0.52,meteohub,2013-03-12 20:28:00,
2013-03-12 16:33:00,47.8,45.7,29.81,SSE,165,6.0,18.0,92,0.07,,,0.53,meteohub,2013-03-12 20:33:00,
2013-03-12 16:38:00,47.7,45.7,29.81,SSW,202,12.0,19.0,93,0.07,,,0.54,meteohub,2013-03-12 20:38:00,
2013-03-12 16:43:00,47.7,45.5,29.81,SSW,193,8.0,19.0,92,0.07,,,0.54,meteohub,2013-03-12 20:43:00,
2013-03-12 16:48:00,47.7,45.7,29.81,SSW,197,9.0,19.0,93,0.07,,,0.55,meteohub,2013-03-12 20:48:00,
2013-03-12 16:53:00,47.5,45.5,29.80,South,186,7.0,17.0,93,0.09,,,0.57,meteohub,2013-03-12 20:53:00,
2013-03-12 16:58:00,47.7,45.7,29.80,South,170,6.0,14.0,93,0.09,,,0.58,meteohub,2013-03-12 20:58:00,
2013-03-12 17:03:00,47.8,45.9,29.80,SW,222,13.0,17.0,93,0.12,,,0.61,meteohub,2013-03-12 21:03:00,
2013-03-12 17:08:00,48.0,46.0,29.79,South,186,12.0,21.0,93,0.13,,,0.63,meteohub,2013-03-12 21:08:00,
2013-03-12 17:13:00,48.6,46.0,29.79,South,175,5.0,21.0,91,0.14,,,0.64,meteohub,2013-03-12 21:13:00,
2013-03-12 17:18:00,48.0,45.9,29.79,South,186,8.0,19.0,92,0.15,,,0.66,meteohub,2013-03-12 21:18:00,
2013-03-12 17:23:00,48.0,45.9,29.78,South,179,6.0,19.0,92,0.16,,,0.68,meteohub,2013-03-12 21:23:00,
2013-03-12 17:28:00,48.0,46.0,29.77,SSW,198,10.0,19.0,93,0.17,,,0.69,meteohub,2013-03-12 21:28:00,
2013-03-12 17:33:00,48.0,46.0,29.76,SSE,160,6.0,16.0,93,0.17,,,0.70,meteohub,2013-03-12 21:33:00,
2013-03-12 17:38:00,48.0,46.0,29.76,SSW,194,11.0,16.0,93,0.17,,,0.71,meteohub,2013-03-12 21:38:00,
2013-03-12 17:43:00,48.0,46.0,29.76,South,186,9.0,17.0,93,0.16,,,0.71,meteohub,2013-03-12 21:43:00,
2013-03-12 17:48:00,48.7,46.6,29.76,South,181,15.0,21.0,92,0.15,,,0.71,meteohub,2013-03-12 21:48:00,
2013-03-12 17:53:00,49.1,46.6,29.76,SSW,200,19.0,21.0,91,0.14,,,0.71,meteohub,2013-03-12 21:53:00,
2013-03-12 17:58:00,49.6,46.8,29.77,South,186,16.0,21.0,90,0.12,,,0.71,meteohub,2013-03-12 21:58:00,
2013-03-12 18:03:00,50.0,46.9,29.77,SSW,195,6.0,21.0,89,0.09,,,0.71,meteohub,2013-03-12 22:03:00,
2013-03-12 18:08:00,49.3,46.4,29.77,South,186,16.0,28.0,90,0.08,,,0.71,meteohub,2013-03-12 22:08:00,
2013-03-12 18:13:00,49.3,46.8,29.77,South,178,4.0,28.0,91,0.07,,,0.72,meteohub,2013-03-12 22:13:00,
2013-03-12 18:19:00,48.9,46.4,29.77,SSE,153,9.0,28.0,91,0.05,,,0.72,meteohub,2013-03-12 22:19:00,
2013-03-12 18:24:00,48.6,46.4,29.77,South,191,10.0,17.0,92,0.04,,,0.72,meteohub,2013-03-12 22:24:00,
2013-03-12 18:29:00,48.7,46.6,29.77,SSE,151,7.0,15.0,92,0.03,,,0.72,meteohub,2013-03-12 22:29:00,
2013-03-12 18:34:00,48.7,46.6,29.76,SSW,211,14.0,17.0,92,0.02,,,0.72,meteohub,2013-03-12 22:34:00,
2013-03-12 18:39:00,48.6,46.4,29.77,SSW,200,7.0,18.0,92,0.01,,,0.72,meteohub,2013-03-12 22:39:00,
2013-03-12 18:44:00,48.0,46.0,29.77,SSW,211,6.0,18.0,93,0.01,,,0.72,meteohub,2013-03-12 22:44:00,
2013-03-12 18:49:00,47.8,46.2,29.77,South,173,4.0,16.0,94,0.01,,,0.72,meteohub,2013-03-12 22:49:00,
2013-03-12 18:54:00,48.0,46.4,29.77,South,191,3.0,13.0,94,0.01,,,0.72,meteohub,2013-03-12 22:54:00,
2013-03-12 18:59:00,48.2,46.8,29.77,SW,226,5.0,11.0,95,0.02,,,0.73,meteohub,2013-03-12 22:59:00,
2013-03-12 19:04:00,48.6,46.6,29.78,SSW,200,3.0,10.0,93,0.02,,,0.73,meteohub,2013-03-12 23:04:00,
2013-03-12 19:09:00,48.6,46.6,29.78,West,274,1.0,10.0,93,0.02,,,0.73,meteohub,2013-03-12 23:09:00,
2013-03-12 19:14:00,48.0,46.0,29.78,WSW,237,3.0,10.0,93,0.01,,,0.73,meteohub,2013-03-12 23:14:00,
2013-03-12 19:19:00,48.2,46.6,29.78,SW,227,0.0,9.0,94,0.01,,,0.73,meteohub,2013-03-12 23:19:00,
2013-03-12 19:24:00,47.7,46.0,29.78,NW,322,2.0,6.0,94,0.01,,,0.73,meteohub,2013-03-12 23:24:00,
2013-03-12 19:29:00,47.1,45.5,29.78,NW,322,0.0,6.0,94,0.01,,,0.73,meteohub,2013-03-12 23:29:00,
2013-03-12 19:34:00,46.2,44.2,29.78,NW,322,0.0,3.0,93,0.01,,,0.73,meteohub,2013-03-12 23:34:00,
2013-03-12 19:39:00,46.4,45.3,29.78,NW,322,0.0,2.0,96,0.02,,,0.74,meteohub,2013-03-12 23:39:00,
2013-03-12 19:44:00,46.6,45.5,29.79,West,266,3.0,3.0,96,0.03,,,0.75,meteohub,2013-03-12 23:44:00,
2013-03-12 19:49:00,46.0,45.0,29.79,NW,317,0.0,6.0,96,0.04,,,0.75,meteohub,2013-03-12 23:49:00,
2013-03-12 19:54:00,45.7,44.6,29.79,WNW,296,1.0,6.0,96,0.03,,,0.76,meteohub,2013-03-12 23:54:00,
2013-03-12 19:59:00,45.3,44.2,29.79,WSW,256,0.0,7.0,96,0.03,,,0.76,meteohub,2013-03-12 23:59:00,
2013-03-12 20:04:00,45.1,44.1,29.79,West,263,2.0,7.0,96,0.04,,,0.77,meteohub,2013-03-13 00:04:00,
2013-03-12 20:09:00,45.0,43.9,29.80,West,264,0.0,7.0,96,0.04,,,0.00,meteohub,2013-03-13 00:09:00,
2013-03-12 20:15:00,44.8,43.7,29.80,West,277,1.0,5.0,96,0.04,,,0.00,meteohub,2013-03-13 00:15:00,
2013-03-12 20:20:00,44.4,43.3,29.80,West,259,1.0,5.0,96,0.04,,,0.00,meteohub,2013-03-13 00:20:00,
2013-03-12 20:25:00,44.1,43.0,29.81,WNW,297,0.0,6.0,96,0.05,,,0.01,meteohub,2013-03-13 00:25:00,
2013-03-12 20:30:00,43.3,42.3,29.82,WNW,298,4.0,8.0,96,0.06,,,0.01,meteohub,2013-03-13 00:30:00,
2013-03-12 20:35:00,42.4,41.2,29.82,NNW,338,6.0,8.0,95,0.06,,,0.02,meteohub,2013-03-13 00:35:00,
2013-03-12 20:40:00,41.4,40.1,29.83,NNW,334,4.0,10.0,95,0.05,,,0.02,meteohub,2013-03-13 00:40:00,
2013-03-12 20:45:00,40.8,39.6,29.83,WNW,294,1.0,10.0,95,0.04,,,0.02,meteohub,2013-03-13 00:45:00,
2013-03-12 20:50:00,40.5,39.2,29.83,West,265,0.0,10.0,95,0.03,,,0.02,meteohub,2013-03-13 00:50:00,
2013-03-12 20:55:00,40.3,39.0,29.84,NNW,340,2.0,9.0,95,0.03,,,0.02,meteohub,2013-03-13 00:55:00,
2013-03-12 21:00:00,39.7,38.5,29.84,NW,313,2.0,6.0,95,0.02,,,0.02,meteohub,2013-03-13 01:00:00,
2013-03-12 21:05:00,39.6,38.3,29.84,North,0,3.0,6.0,95,0.02,,,0.02,meteohub,2013-03-13 01:05:00,
2013-03-12 21:10:00,39.4,38.1,29.85,WNW,294,1.0,7.0,95,0.02,,,0.02,meteohub,2013-03-13 01:10:00,
2013-03-12 21:15:00,39.0,37.8,29.85,West,260,5.0,8.0,95,0.02,,,0.03,meteohub,2013-03-13 01:15:00,
2013-03-12 21:20:00,38.8,37.8,29.85,WNW,287,3.0,8.0,96,0.02,,,0.03,meteohub,2013-03-13 01:20:00,
2013-03-12 21:25:00,38.7,37.6,29.86,NW,319,6.0,7.0,96,0.02,,,0.03,meteohub,2013-03-13 01:25:00,
2013-03-12 21:30:00,38.5,37.4,29.85,WNW,291,2.0,7.0,96,0.01,,,0.03,meteohub,2013-03-13 01:30:00,
2013-03-12 21:35:00,37.9,36.9,29.86,NW,316,4.0,8.0,96,0.01,,,0.04,meteohub,2013-03-13 01:35:00,
2013-03-12 21:40:00,37.8,36.7,29.86,NNW,335,5.0,9.0,96,0.02,,,0.04,meteohub,2013-03-13 01:40:00,
2013-03-12 21:45:00,37.4,36.3,29.86,West,281,0.0,12.0,96,0.02,,,0.04,meteohub,2013-03-13 01:45:00,
2013-03-12 21:50:00,37.0,36.0,29.87,WNW,288,3.0,12.0,96,0.02,,,0.04,meteohub,2013-03-13 01:50:00,
2013-03-12 21:55:00,36.9,35.8,29.88,WNW,289,1.0,12.0,96,0.02,,,0.04,meteohub,2013-03-13 01:55:00,
2013-03-12 22:00:00,36.7,35.6,29.87,WNW,290,2.0,9.0,96,0.02,,,0.04,meteohub,2013-03-13 02:00:00,
2013-03-12 22:05:00,36.3,35.6,29.88,WNW,296,1.0,5.0,97,0.02,,,0.04,meteohub,2013-03-13 02:05:00,
2013-03-12 22:10:00,36.1,35.1,29.87,WNW,286,1.0,5.0,96,0.02,,,0.05,meteohub,2013-03-13 02:10:00,
2013-03-12 22:15:00,36.0,35.2,29.88,West,281,0.0,5.0,97,0.02,,,0.05,meteohub,2013-03-13 02:15:00,
2013-03-12 22:20:00,35.8,35.1,29.88,NW,315,2.0,7.0,97,0.02,,,0.05,meteohub,2013-03-13 02:20:00,
2013-03-12 22:25:00,35.4,34.7,29.88,WNW,296,1.0,7.0,97,0.03,,,0.06,meteohub,2013-03-13 02:25:00,
2013-03-12 22:30:00,35.4,34.7,29.89,West,269,0.0,7.0,97,0.02,,,0.06,meteohub,2013-03-13 02:30:00,
2013-03-12 22:35:00,35.2,34.5,29.89,West,269,0.0,9.0,97,0.02,,,0.06,meteohub,2013-03-13 02:35:00,
2013-03-12 22:40:00,35.1,34.3,29.89,WNW,298,2.0,11.0,97,0.02,,,0.06,meteohub,2013-03-13 02:40:00,
2013-03-12 22:45:00,34.7,34.0,29.89,WNW,289,2.0,11.0,97,0.02,,,0.06,meteohub,2013-03-13 02:45:00,
2013-03-12 22:50:00,34.5,33.8,29.89,WNW,302,0.0,10.0,97,0.02,,,0.06,meteohub,2013-03-13 02:50:00,
2013-03-12 22:55:00,34.3,33.6,29.90,WNW,289,3.0,10.0,97,0.02,,,0.06,meteohub,2013-03-13 02:55:00,
2013-03-12 23:00:00,34.3,33.6,29.90,NW,313,4.0,6.0,97,0.02,,,0.06,meteohub,2013-03-13 03:00:00,
2013-03-12 23:05:00,34.2,33.4,29.90,North,0,3.0,8.0,97,0.01,,,0.06,meteohub,2013-03-13 03:05:00,
2013-03-12 23:10:00,34.2,33.4,29.90,NW,304,3.0,8.0,97,0.01,,,0.06,meteohub,2013-03-13 03:10:00,
2013-03-12 23:15:00,34.0,33.3,29.91,West,269,0.0,7.0,97,0.01,,,0.06,meteohub,2013-03-13 03:15:00,
2013-03-12 23:20:00,34.0,33.3,29.91,North,5,0.0,6.0,97,0.01,,,0.06,meteohub,2013-03-13 03:20:00,
2013-03-12 23:25:00,33.8,33.1,29.91,NW,304,3.0,6.0,97,0.00,,,0.06,meteohub,2013-03-13 03:25:00,
2013-03-12 23:30:00,33.6,32.9,29.91,NW,309,1.0,7.0,97,0.00,,,0.06,meteohub,2013-03-13 03:30:00,
2013-03-12 23:35:00,33.6,32.9,29.91,SW,221,5.0,7.0,97,0.00,,,0.06,meteohub,2013-03-13 03:35:00,
2013-03-12 23:40:00,33.6,32.9,29.91,West,271,1.0,7.0,97,0.00,,,0.06,meteohub,2013-03-13 03:40:00,
2013-03-12 23:45:00,33.6,32.5,29.91,West,271,1.0,7.0,96,0.00,,,0.06,meteohub,2013-03-13 03:45:00,
2013-03-12 23:50:00,33.6,32.5,29.91,NE,46,0.0,8.0,96,0.00,,,0.06,meteohub,2013-03-13 03:50:00,
2013-03-12 23:55:00,33.6,32.5,29.91,WSW,257,2.0,8.0,96,0.00,,,0.06,meteohub,2013-03-13 03:55:00,